[Iaude] MPEC H25: 2024 HG [a=1.33,e=0.32,i=29.3,H=27.2]

mpec at cfa.harvard.edu mpec at cfa.harvard.edu
Thu Apr 18 10:00:30 EDT 2024


M.P.E.C. 2024-H25                                Issued 2024 April 18, 13:59 UT

     The Minor Planet Electronic Circulars contain information on unusual
         minor planets, routine data on comets and natural satellites,
         and occasional editorial announcements.  They are published
    on behalf of Division F of the International Astronomical Union by the
          Minor Planet Center, Smithsonian Astrophysical Observatory,
                          Cambridge, MA 02138, U.S.A.
			  
             Prepared using the Tamkin Foundation Computer Network

                              MPC at CFA.HARVARD.EDU
            URL https://www.minorplanetcenter.net/    ISSN 1523-6714

                                    2024 HG                                     


Observations:
     K24H00G 1C2024 04 15.36237 14 02 38.51 +30 49 45.4          17.4 GVEH025703
     K24H00G 1C2024 04 15.36445 14 02 47.67 +30 54 37.7          17.7 GVEH025703
     K24H00G* C2024 04 16.43848514 43 48.478+46 11 10.45         20.54wXEH025F51
     K24H00G  C2024 04 16.45242714 43 58.532+46 15 23.40         20.60wXEH025F51
     K24H00G  C2024 04 16.46639514 44 08.378+46 19 29.52         20.32GVEH025F51
     K24H00G  C2024 04 16.48033514 44 18.016+46 23 27.14         20.18GVEH025F51
     K24H00G  C2024 04 16.56111914 45 12.470+46 44 25.34         20.31GVEH025F51
     K24H00G  C2024 04 16.56176014 45 12.895+46 44 34.37         20.38GVEH025F51
     K24H00G IC2024 04 17.09418914 51 53.916+48 25 45.48               VEH025J95
     K24H00G KC2024 04 17.10431614 51 58.322+48 27 13.36         21.1 GVEH025J95
     K24H00G KC2024 04 17.11294214 52 01.985+48 28 25.90         21.4 GVEH025J95
     K24H00G KC2024 04 17.29063114 53 54.93 +48 54 24.7          21.2 GXEH025858
     K24H00G KC2024 04 17.31348314 54 02.03 +48 57 24.5          21.2 GXEH025858
     K24H00G  C2024 04 17.36605014 54 18.116+49 03 55.74         21.2 GVEH025H01
     K24H00G  C2024 04 17.37209814 54 19.860+49 04 37.57         20.7 GVEH025H01
     K24H00G  C2024 04 17.38306314 54 23.034+49 05 51.90         21.4 GVEH025H01
     K24H00G  C2024 04 17.39235714 54 25.735+49 06 53.78         21.1 GVEH025H01
     K24H00G  C2024 04 17.47704514 55 13.176+49 17 43.06         21.35GVEH025F52
     K24H00G  C2024 04 17.47769514 55 13.320+49 17 47.11         21.27GVEH025F52
     K24H00G KC2024 04 18.37557415 00 08.254+50 28 43.22         21.7 GVEH025H01
     K24H00G KC2024 04 18.39112115 00 10.183+50 29 35.21         21.8 GVEH025H01

Observer details:
703 Catalina Sky Survey.  Observer R. A. Kowalski.  Measurers B. Gray, D.
    Rankin, F. C. Shelly.  0.68-m Schmidt + 10K CCD.
858 Tebbutt Observatory, Edgewood.  Observer F. B. Zoltowski.  0.51-m f/8.1
    Schmidt-Cassegrain + CCD.
F51 Pan-STARRS 1, Haleakala.  Observers J. Herman, T. Lowe, P. Minguez, A.
    Schultz, I. Smith.  Measurers K. Chambers, T. de Boer, J. Fairlamb, H.
    Gao, M. Huber, C.-C. Lin, E. Magnier, Y. Ramanjooloo, R. Wainscoat, R.
    Weryk.  1.8-m Ritchey-Chretien + CCD.
F52 Pan-STARRS 2, Haleakala.  Observers J. Herman, T. Lowe, P. Minguez, A.
    Schultz, I. Smith.  Measurers K. Chambers, T. de Boer, J. Fairlamb, H.
    Gao, M. Huber, C.-C. Lin, E. Magnier, Y. Ramanjooloo, R. Wainscoat, R.
    Weryk.  1.8-m Ritchey-Chretien + CCD.
H01 Magdalena Ridge Observatory, Socorro.  Observers W. H. Ryan, E. V. Ryan.
    Measurer W. H. Ryan.  2.4-m f/8.9 Ritchey-Chretien + CCD.
J95 Great Shefford.  Observer P. Birtwhistle.  0.41-m f/6.3 Schmidt-Cassegrain
    + CCD.

Orbital elements:
2024 HG                                                  Earth MOID = 0.0026 AU
Epoch 2024 Mar. 31.0 TT = JDT 2460400.5                 MPC                     
M  18.99332              (2000.0)            P               Q                  
n   0.64035756     Peri.  305.29807     -0.82516855     -0.52530766             
a   1.3330743      Node   205.10378     +0.52527455     -0.84881902             
e   0.3230470      Incl.   29.31513     -0.20780641     -0.05965009             
P   1.54           H   27.28          G   0.15           U   8                  
Residuals in seconds of arc
240415 703  0.2-  0.6-    240416 F51  0.1-  0.3-    240417 H01  0.0   0.1+
240415 703  0.1+  0.6+    240417 J95  0.3-  0.6+    240417 H01  0.0   0.1-
240416 F51  0.1-  0.4-    240417 J95  0.2+  0.9+    240417 H01  0.0   0.1-
240416 F51  0.1+  0.0     240417 J95  0.3-  0.0     240417 F52  0.1+  0.2+
240416 F51  0.0   0.1+    240417 858  0.3+  0.2-    240417 F52  0.0   0.0
240416 F51  0.3-  1.0-    240417 858  0.1+  0.0     240418 H01  0.1-  0.2-
240416 F51  0.0   0.2-    240417 H01  0.1+  0.0     240418 H01  0.1-  0.1-

Ephemeris:
2024 HG                  a,e,i = 1.33, 0.32, 29                  q = 0.9024
Date    TT    R. A. (2000) Decl.     Delta      r    Elong.  Phase     V
2024 03 19    03 08 57.5 -52 45 21   0.2607  0.9204    65.9    99.1    27.8
...
2024 04 03    03 19 22.9 -54 33 04   0.1174  0.9610    67.5   106.0    26.5
...
2024 04 11    03 33 02.9 -56 55 35   0.03824 0.9902    70.8   107.1    24.2
...
2024 04 17    14 51 03.6 +48 11 19   0.02188 1.0147   119.3    59.6    21.1
2024 04 18    14 58 25.1 +50 02 22   0.03180 1.0189   117.0    61.4    22.0
2024 04 19    15 02 28.9 +50 58 58   0.04173 1.0232   115.8    62.1    22.6
...
2024 04 25    15 10 09.7 +52 31 22   0.1013  1.0498   113.1    61.8    24.6
...
2024 05 03    15 11 36.5 +52 25 33   0.1800  1.0873   111.6    59.5    25.9
...
2024 05 18    15 11 22.1 +50 30 44   0.3242  1.1615   109.7    55.1    27.2

A. U. Tomatic                (C) Copyright 2024 MPC           M.P.E.C. 2024-H25





More information about the Iaude mailing list